Theta_e
294 294 294 293 292 292 292 292 293 293 292 292 292 293 292 291 291 291 290 290 290 290
294 294 293 292 293 292 292 294 293 292 292 292 292 292 292 291 291 290 290 290 290 290
294 294 294 293 292 292 292 293 293 292 292 292 292 292 291 290 290 290 290 291 290 290
294 294 293 293 293 292 292 292 292 292 292 292 292 291 290 289 290 289 290 290 290 291
294 293 292 292 292 292 292 292 292 292 291 292 292 291 290 289 290 289 289 290 291 291
293 293 292 292 291 291 290 290 291 291 291 291 291 290 290 290 290 290 290 291 291 292
292 293 292 292 290 290 290 289 290 290 291 291 291 291 291 291 290 290 292 293 293 293
293 293 292 291 290 290 289 290 290 289 290 290 291 292 290 291 291 291 292 293 294 295
293 292 291 291 290 289 289 289 289 288 289 289 292 298 301 299 293 293 293 292 293 294
293 292 291 291 290 289 288 287 288 288 288 288 288 299 301 301 294 293 291 290 291 292
293 292 291 290 289 287 287 287 287 287 288 288 290 299 301 301 293 291 291 291 291 291
293 291 290 289 288 287 287 286 287 288 287 287 288 297 300 298 292 291 291 292 292 292
293 291 290 289 288 286 287 288 288 288 287 291 288 296 298 298 292 289 290 292 293 300
292 291 290 288 288 287 287 287 287 288 287 286 287 287 298 300 293 291 291 292 293 296
Wind_Speed
13 9 8 9 6 6 6 5 7 7 6 6 6 5 4 3 4 5 5 7 5 4
12 11 10 9 8 6 6 5 7 7 6 6 6 6 5 4 5 4 5 6 6 5
15 12 10 9 9 8 7 6 7 7 6 6 6 6 5 4 5 4 5 5 6 6
13 12 10 10 9 9 7 8 7 7 7 6 6 6 5 5 6 6 6 6 6 8
15 14 12 10 10 9 9 7 8 7 6 6 6 5 5 6 5 6 6 8 6 8
15 15 14 12 10 9 8 8 7 7 7 7 6 5 5 6 6 6 7 8 7 9
17 16 14 12 11 10 9 8 7 7 7 6 6 5 6 6 6 7 7 8 7 7
15 14 13 12 11 10 9 8 7 7 6 6 5 4 6 6 7 7 7 6 6 7
15 14 14 13 12 11 9 7 7 7 7 6 4 9 10 8 6 6 6 6 7 7
16 16 15 14 13 11 10 7 8 7 7 6 6 10 10 11 3 4 5 6 6 7
16 15 14 14 13 9 8 9 7 7 7 6 6 10 10 11 2 3 6 7 7 7
16 16 15 14 13 8 8 6 6 5 7 7 6 9 9 8 2 5 7 7 7 7
17 17 16 14 13 6 6 6 6 6 6 8 7 8 8 7 3 4 5 6 7 16
15 16 15 14 8 9 7 7 6 6 5 5 6 6 9 9 3 4 4 4 6 6
Wind_Direction
176 175 176 170 162 175 177 179 181 189 184 197 198 205 209 219 233 229 237 250 235 244
174 168 175 171 165 169 168 182 181 182 186 204 209 214 213 221 238 229 249 246 249 238
177 174 171 163 171 171 179 181 173 184 196 204 215 221 208 230 246 238 254 247 249 254
171 172 168 170 175 181 170 177 182 185 190 206 218 219 219 239 257 244 256 265 245 256
169 171 172 176 177 172 181 173 178 181 191 206 218 225 225 252 257 255 266 264 264 261
173 173 178 179 173 171 167 174 178 176 195 206 216 227 234 231 254 260 253 255 253 260
176 176 176 172 169 170 172 168 177 189 198 202 213 221 236 247 255 255 255 259 257 257
175 172 165 164 168 169 166 175 177 180 197 203 199 218 227 238 248 251 265 270 266 258
169 166 169 166 167 165 166 164 170 189 194 190 211 237 255 279 248 257 252 263 275 271
171 171 171 167 161 164 166 157 181 188 181 209 223 246 263 283 267 246 254 264 271 287
173 170 165 162 167 155 155 171 173 179 190 207 232 247 267 286 289 262 274 267 270 270
173 163 162 166 162 153 146 162 169 170 186 199 242 252 269 285 264 272 273 273 275 269
167 162 163 160 155 140 151 164 157 183 195 206 232 256 271 270 247 255 265 277 267 275
165 159 156 146 144 144 146 140 163 190 191 216 216 256 261 269 268 239 257 263 274 269